Station PSBM1 - 8410140 - Eastport, ME Image indicating link to RSS feed of recent meteorological observations for station PSBM1


Conditions at PSBM1 as of
(8:18 am EDT)
1218 GMT on 04/20/2024:
     

Click on the graph icon in the table below to see a time series plot of the last five days of that observation.

5-day plot - Wind Direction Wind Direction (WDIR): S ( 170 deg true )
5-day plot - Wind Speed Wind Speed (WSPD): 13.0 kts
5-day plot - Wind Gust Wind Gust (GST): 15.9 kts
5-day plot - Atmospheric Pressure Atmospheric Pressure (PRES):29.91 in
5-day plot - Air Temperature Air Temperature (ATMP): 42.8 °F
5-day plot - Water Temperature Water Temperature (WTMP): 41.4 °F
5-day plot - Wind Chill Wind Chill (CHILL): 35.4 °F
5-day plot - Wind Speed at 10 Meters Wind Speed at 10 meters (WSPD10M): 13.6 kts
5-day plot - Wind Speed at 20 Meters Wind Speed at 20 meters (WSPD20M): 15.5 kts
5-day plot -  Wind Speed, Wind Gust and Atmospheric Pressure Combined plot of Wind Speed, Gust, and Air Pressure
NOS Water Level Observation Network Water Level
Previous observations
TIME
(EDT)
5-day plot - Wind Direction
WDIR
 
5-day plot - Wind Speed
WSPD
kts
5-day plot - Wind Gust
GST
kts
5-day plot - Wave Height
WVHT
ft
5-day plot - Dominant Wave Period
DPD
sec
5-day plot - Average Wave Period
APD
sec
5-day plot - Mean Wave Direction
MWD
 
5-day plot - Atmospheric Pressure
PRES
in
5-day plot - Pressure Tendency
PTDY
in
5-day plot - Air Temperature
ATMP
°F
5-day plot - Water Temperature
WTMP
°F
5-day plot - Dew Point
DEWP
°F
5-day plot - Salinity
SAL
psu
5-day plot - Visibility
VIS
nmi
5-day plot - Tide (above MLLW)
TIDE
ft
2024-04-20 08:12 am S 13.0 18.1----29.91- 42.6 41.4----
2024-04-20 08:06 am S 8.9 14.0----29.92- 42.6 41.4----
2024-04-20 08:00 am S 12.0 15.9----29.91-0.02 42.6 41.4----
2024-04-20 07:54 am S 13.0 15.0----29.91- 42.6 41.4----
2024-04-20 07:48 am S 11.1 15.0----29.92- 42.6 41.4----
2024-04-20 07:42 am S 11.1 14.0----29.92- 42.6 41.4----
2024-04-20 07:36 am S 12.0 15.0----29.92- 42.4 41.4----
2024-04-20 07:30 am S 12.0 14.0----29.92- 42.4 41.4----
2024-04-20 07:24 am S 12.0 15.0----29.93- 42.4 41.5----
2024-04-20 07:18 am S 12.0 15.0----29.93- 42.4 41.5----
2024-04-20 07:12 am S 13.0 18.1----29.93- 42.6 41.7----
2024-04-20 07:06 am S 14.0 15.9----29.93- 42.6 41.7----
2024-04-20 07:00 am S 8.9 17.1----29.93-0.01 42.6 41.7----
2024-04-20 06:54 am S 12.0 14.0----29.93- 42.4 41.9----
2024-04-20 06:48 am S 12.0 14.0----29.93- 42.4 41.9----
2024-04-20 06:42 am S 11.1 14.0----29.93- 42.4 41.9----
2024-04-20 06:36 am S 11.1 15.0----29.93- 42.4 42.1----
2024-04-20 06:30 am S 12.0 15.0----29.93-- 42.1----
2024-04-20 06:24 am S 12.0 15.9----29.93-- 42.1----
2024-04-20 06:18 am S 12.0 15.0----29.93- 42.6 42.1----
2024-04-20 06:12 amSSE 12.0 17.1----29.92- 42.4 42.1----
2024-04-20 06:06 am S 11.1 15.0----29.92- 42.4 42.1----
2024-04-20 06:00 am S 13.0 15.0----29.93-0.04- 42.1----
2024-04-20 05:54 am S 12.0 17.1----29.93-- 42.1----
2024-04-20 05:48 am S 12.0 15.0----29.93- 42.6 42.1----
2024-04-20 05:42 am S 12.0 15.9----29.93- 42.6 42.1----
2024-04-20 05:36 am S 14.0 17.1----29.93- 42.6 42.1----
2024-04-20 05:30 am S 12.0 17.1----29.93- 42.4 41.9----
2024-04-20 05:24 amSSE 13.0 15.0----29.93- 42.4 41.9----
2024-04-20 05:18 amSSE 11.1 15.0----29.93- 42.4 41.9----
2024-04-20 05:12 am S 11.1 15.0----29.93- 42.4 41.9----
2024-04-20 05:06 am S 11.1 14.0----29.93- 42.4 41.9----
2024-04-20 05:00 amSSE 12.0 15.0----29.93-0.04 42.3 41.9----
2024-04-20 04:54 amSSE 13.0 15.0----29.93- 42.3 41.9----
2024-04-20 04:48 am S 13.0 15.0----29.93- 42.3 41.9----
2024-04-20 04:42 amSSE 13.0 14.0----29.93- 42.3 41.9----
2024-04-20 04:36 am S 12.0 14.0----29.93- 42.4 42.1----
2024-04-20 04:30 amSSE 14.0 15.9----29.93-- 41.9----
2024-04-20 04:24 am S 12.0 14.0----29.94-- 41.9----
2024-04-20 04:18 am S 12.0 15.0----29.94- 42.4 41.9----
2024-04-20 04:12 am S 9.9 14.0----29.94- 42.4 41.9----
2024-04-20 04:06 am S 9.9 15.0----29.94- 42.4 41.9----
2024-04-20 04:00 am-------29.94-0.05- 42.1----
2024-04-20 03:54 am-------29.95-- 42.1----
2024-04-20 03:48 am S 11.1 14.0----29.95- 42.4 41.9----
2024-04-20 03:42 amSSE 11.1 14.0----29.95- 42.4 41.9----
2024-04-20 03:36 amSSE 12.0 14.0----29.95- 42.3 41.7----
2024-04-20 03:30 amSSE 12.0 14.0----29.95- 42.3 41.7----
2024-04-20 03:24 amSSE 12.0 13.0----29.96- 42.4 41.5----
2024-04-20 03:18 am S 11.1 13.0----29.96- 42.4 41.5----
2024-04-20 03:12 amSSE 11.1 15.0----29.96- 42.4 41.4----
2024-04-20 03:06 amSSE 11.1 15.9----29.96- 42.3 41.4----
2024-04-20 03:00 amSSE 12.0 15.0----29.96-0.06 42.3 41.4----
2024-04-20 02:54 amSSE 12.0 15.0----29.96- 42.3 41.4----
2024-04-20 02:48 amSSE 13.0 14.0----29.96- 42.4 41.4----
2024-04-20 02:42 amSSE 12.0 13.0----29.96- 42.4 41.4----
2024-04-20 02:36 amSSE 12.0 14.0----29.96- 42.4 41.4----
2024-04-20 02:30 amSSE 12.0 14.0----29.96- 42.4 41.4----
2024-04-20 02:24 amSSE 13.0 15.0----29.96- 42.4 41.4----
2024-04-20 02:18 amSSE 12.0 13.0----29.97- 42.3 41.4----
2024-04-20 02:12 amSSE 11.1 12.0----29.97- 42.3 41.4----
2024-04-20 02:06 amSSE 11.1 12.0----29.97- 42.3 41.4----
2024-04-20 02:00 amSSE 12.0 13.0----29.97-0.05 42.3 41.4----
2024-04-20 01:54 amSSE 11.1 14.0----29.98- 42.1 41.4----
2024-04-20 01:48 amSSE 12.0 13.0----29.98- 42.1 41.4----
2024-04-20 01:42 amSSE 12.0 13.0----29.98- 42.1 41.4----
2024-04-20 01:36 amSSE 12.0 14.0----29.98- 42.1 41.4----
2024-04-20 01:30 amSSE 12.0 15.0----29.98- 42.3 41.4----
2024-04-20 01:24 amSSE 12.0 14.0----29.98- 42.3 41.4----
2024-04-20 01:18 amSSE 12.0 13.0----29.98- 42.6 41.4----
2024-04-20 01:12 amSSE 11.1 12.0----29.98- 42.6 41.4----
2024-04-20 01:06 amSSE 11.1 12.0----29.98- 42.8 41.4----
2024-04-20 01:00 amSSE 8.9 11.1----29.99-0.04 43.0 41.4----
2024-04-20 12:54 am S 9.9 11.1----30.00- 43.2 41.4----
2024-04-20 12:48 am S 7.0 9.9----30.00- 43.3 41.4----
2024-04-20 12:42 am S 7.0 11.1----30.01- 43.3 41.4----
2024-04-20 12:36 am S 6.0 9.9----30.01- 43.3 41.4----
2024-04-20 12:30 am S 7.0 9.9----30.01- 43.3 41.4----
2024-04-20 12:24 am S 6.0 12.0----30.01- 43.2 41.4----
2024-04-20 12:18 am S 8.0 11.1----30.01- 43.0 41.4----
2024-04-20 12:12 am S 6.0 9.9----30.01- 42.8 41.4----
2024-04-20 12:06 am S 7.0 9.9----30.02- 42.6 41.4----
2024-04-20 12:00 am S 8.9 11.1----30.02-0.03 42.4 41.4----
2024-04-19 11:54 pm S 8.0 9.9----30.02- 42.3 41.4----
2024-04-19 11:48 pmSSE 8.9 13.0----30.02- 42.3 41.4----
2024-04-19 11:42 pm S 8.0 13.0----30.02- 42.3 41.4----
2024-04-19 11:36 pm S 8.9 12.0----30.02- 42.4 41.4----
2024-04-19 11:30 pm S 9.9 12.0----30.02- 42.3 41.4----
2024-04-19 11:24 pm S 9.9 13.0----30.02- 42.3 41.4----
2024-04-19 11:18 pm S 9.9 12.0----30.02- 42.3 41.4----
2024-04-19 11:12 pm S 8.9 11.1----30.02- 42.3 41.4----
2024-04-19 11:06 pm S 9.9 12.0----30.03- 42.3 41.4----
2024-04-19 11:00 pmSSE 9.9 12.0----30.03-0.01 42.3 41.4----
2024-04-19 10:54 pm S 9.9 12.0----30.03- 42.3 41.4----
2024-04-19 10:48 pm S 8.9 12.0----30.03- 42.3 41.4----
2024-04-19 10:42 pm S 9.9 12.0----30.03- 42.4 41.4----
2024-04-19 10:36 pm S 8.0 11.1----30.03- 42.4 41.4----
2024-04-19 10:30 pm S 8.9 11.1----30.03- 42.4 41.4----
2024-04-19 10:24 pm S 8.0 11.1----30.03- 42.4 41.4----
2024-04-19 10:18 pm S 8.0 12.0----30.03- 42.4 41.4----
2024-04-19 10:12 pm S 8.0 11.1----30.03- 42.3 41.4----
2024-04-19 10:06 pm S 8.9 11.1----30.03- 42.3 41.4----
2024-04-19 10:00 pm S 8.9 11.1----30.03+0.00 42.3 41.4----
2024-04-19 09:54 pm S 8.9 12.0----30.03- 42.3 41.4----
2024-04-19 09:48 pm S 8.9 12.0----30.03- 42.1 41.4----
2024-04-19 09:42 pm S 8.9 11.1----30.04- 42.1 41.4----
2024-04-19 09:36 pm S 8.9 12.0----30.04- 42.1 41.4----
2024-04-19 09:30 pmSSE 8.9 9.9----30.04- 41.9 41.4----
2024-04-19 09:24 pmSSE 8.9 9.9----30.03- 42.1 41.4----
2024-04-19 09:18 pmSSE 8.0 8.9----30.03- 42.3 41.4----
2024-04-19 09:12 pmSSE 8.0 8.0----30.03- 42.4 41.4----
2024-04-19 09:06 pm S 7.0 9.9----30.04- 42.4 41.4----
2024-04-19 09:00 pm S 8.0 8.9----30.04+0.00 42.6 41.4----
2024-04-19 08:54 pm S 7.0 8.0----30.04- 42.8 41.4----
2024-04-19 08:48 pm S 8.0 8.9----30.04- 43.2 41.4----
2024-04-19 08:42 pm S 6.0 8.9----30.03- 43.5 41.4----
2024-04-19 08:36 pmSSW 5.1 8.9----30.03- 43.7 41.4----
2024-04-19 08:30 pm S 6.0 8.9----30.03- 43.7 41.4----
2024-04-19 08:24 pmSSW 5.1 8.0----30.04- 44.1 41.4----
2024-04-19 08:18 pm S 4.1 7.0----30.03- 44.1 41.4----
2024-04-19 08:12 pm S 5.1 8.0----30.03- 44.2 41.4----
2024-04-19 08:06 pm S 5.1 8.0----30.03- 44.4 41.4----
2024-04-19 08:00 pm S 7.0 9.9----30.03-0.02 44.8 41.4----
2024-04-19 07:54 pm S 7.0 8.9----30.03- 45.0 41.4----
2024-04-19 07:48 pm S 6.0 8.0----30.03- 45.1 41.4----
2024-04-19 07:42 pm S 5.1 7.0----30.03- 45.1 41.4----
2024-04-19 07:36 pm S 5.1 8.9----30.03- 45.7 41.4----
2024-04-19 07:30 pm S 7.0 8.9----30.03- 45.9 41.4----
2024-04-19 07:24 pm S 7.0 8.9----30.04- 46.0 41.4----
2024-04-19 07:00 pm S 6.0 8.0----30.04-0.02 45.5 41.5----
2024-04-19 06:54 pm S 8.0 11.1----30.04- 45.1 41.5----
2024-04-19 06:48 pm S 11.1 12.0----30.04- 45.3 41.7----
2024-04-19 06:42 pm S 8.0 12.0----30.04- 45.5 41.7----
2024-04-19 06:36 pm S 11.1 13.0----30.04- 44.6 41.7----
2024-04-19 06:30 pmSSE 12.0 12.0----30.03- 45.0 41.7----
2024-04-19 06:24 pmSSE 12.0 13.0----30.03- 45.3 41.9----
2024-04-19 06:18 pmSSE 11.1 13.0----30.03- 45.5 41.9----
2024-04-19 06:12 pmSSE 12.0 14.0----30.04- 46.0 42.1----
2024-04-19 06:06 pmSSE 9.9 12.0----30.04- 45.9 42.3----
2024-04-19 06:00 pmSSE 8.9 9.9----30.04-0.05 46.0 42.3----
2024-04-19 05:54 pmSSE 8.9 9.9----30.05- 46.6 42.3----
2024-04-19 05:48 pmSSE 8.9 11.1----30.05- 46.8 42.3----
2024-04-19 05:42 pmSSE 12.0 13.0----30.05- 46.9 42.3----
2024-04-19 05:36 pmSSE 11.1 11.1----30.05- 46.8 42.3----
2024-04-19 05:30 pmSSE 9.9 11.1----30.06- 46.8 42.3----
2024-04-19 05:24 pmSSE 8.9 11.1----30.05- 46.9 42.3----
2024-04-19 05:18 pmSSE 8.9 9.9----30.05- 46.9 42.3----
2024-04-19 05:12 pmSSE 8.9 8.9----30.05- 48.0 42.3----
2024-04-19 05:06 pmSSE 8.9 9.9----30.06- 48.6 42.3----
2024-04-19 05:00 pm S 8.9 12.0----30.06-0.05 49.3 42.3----
2024-04-19 04:54 pm S 9.9 11.1----30.06- 49.5 42.3----
2024-04-19 04:48 pm S 8.9 12.0----30.06- 50.2 42.3----
2024-04-19 04:42 pm S 9.9 12.0----30.06- 47.8 42.3----
2024-04-19 04:36 pmSSE 12.0 12.0----30.06- 47.1 42.3----
2024-04-19 04:30 pmSSE 11.1 12.0----30.06- 46.8 42.3----
2024-04-19 04:24 pmSSE 9.9 12.0----30.06- 46.8 42.3----
2024-04-19 04:18 pmSSE 11.1 12.0----30.06- 46.8 42.3----
2024-04-19 04:12 pmSSE 11.1 12.0----30.06- 46.9 42.4----
2024-04-19 04:06 pmSSE 11.1 12.0----30.06- 46.8 42.4----
2024-04-19 04:00 pmSSE 8.9 9.9----30.06-0.06 46.6 42.4----
2024-04-19 03:54 pmSSE 9.9 12.0----30.06- 46.6 42.4----
2024-04-19 03:48 pmSSE 12.0 12.0----30.07- 46.6 42.3----
2024-04-19 03:42 pmSSE 11.1 11.1----30.07- 46.6 42.3----
2024-04-19 03:36 pmSSE 11.1 12.0----30.07- 46.2 42.3----
2024-04-19 03:30 pmSSE 11.1 12.0----30.07- 46.6 42.3----
2024-04-19 03:24 pmSSE 9.9 11.1----30.07- 46.8 42.3----
2024-04-19 03:18 pmSSE 8.9 11.1----30.08- 46.6 42.1----
2024-04-19 03:12 pmSSE 9.9 11.1----30.08- 46.6 42.1----
2024-04-19 03:06 pmSSE 9.9 11.1----30.09- 46.8 42.1----
2024-04-19 03:00 pmSSE 9.9 12.0----30.09-0.06 46.4 41.5----
2024-04-19 02:54 pmSSE 9.9 12.0----30.09- 46.0 41.5----
2024-04-19 02:48 pmSSE 9.9 11.1----30.10- 45.9 41.5----
2024-04-19 02:42 pm S 9.9 11.1----30.10- 45.7 41.5----
2024-04-19 02:36 pmSSE 9.9 11.1----30.10- 46.0 41.5----
2024-04-19 02:30 pmSSE 9.9 11.1----30.10- 46.2 41.5----
2024-04-19 02:24 pmSSE 9.9 12.0----30.11- 46.2 41.5----
2024-04-19 02:18 pmSSE 8.9 11.1----30.11- 46.0 41.5----
2024-04-19 02:12 pmSSE 6.0 8.9----30.11- 45.5 41.5----
2024-04-19 02:06 pm SE 8.9 11.1----30.11- 45.9 41.5----
2024-04-19 02:00 pmESE 11.1 13.0----30.11-0.07 46.0 41.5----
2024-04-19 01:54 pmESE 11.1 12.0----30.11- 45.5 41.5----
2024-04-19 01:48 pmESE 11.1 12.0----30.11- 45.7 41.5----
2024-04-19 01:42 pmESE 8.9 9.9----30.11- 46.0 41.5----
2024-04-19 01:36 pmESE 8.0 8.9----30.11- 45.9 41.4----
2024-04-19 01:30 pmESE 8.0 8.9----30.12- 46.0 41.4----
2024-04-19 01:24 pm SE 4.1 7.0----30.12- 46.2 41.4----
2024-04-19 01:18 pm E 4.1 6.0----30.12- 46.8 41.4----
2024-04-19 01:12 pm E 6.0 7.0----30.13- 46.6 41.4----
2024-04-19 01:06 pm E 7.0 7.0----30.13- 46.4 41.4----
2024-04-19 01:00 pm E 7.0 8.0----30.13-0.07 46.2 41.4----
2024-04-19 12:54 pm E 6.0 7.0----30.13- 46.0 41.4----
2024-04-19 12:48 pm E 5.1 5.1----30.13- 46.4 41.4----
2024-04-19 12:42 pmESE 4.1 6.0----30.14- 45.3 41.4----
2024-04-19 12:36 pm SE 6.0 8.0----30.14- 45.9 41.4----
2024-04-19 12:30 pm SE 7.0 8.0----30.14- 45.9 41.4----
2024-04-19 12:24 pm SE 6.0 7.0----30.14- 45.9 41.4----
2024-04-19 12:18 pm SE 6.0 8.0----30.14- 45.9 41.4----
2024-04-19 12:12 pmESE 8.0 8.0----30.14- 45.7 41.4----
2024-04-19 12:06 pmESE 8.0 8.0----30.15- 45.7 41.4----
2024-04-19 12:00 pmESE 8.0 8.0----30.15-0.04 45.5 41.2----
2024-04-19 11:54 am SE 8.0 8.9----30.15- 45.7 41.4----
2024-04-19 11:48 am SE 8.0 8.0----30.16- 45.5 41.4----
2024-04-19 11:42 am SE 7.0 8.0----30.16- 45.7 41.4----
2024-04-19 11:36 am SE 6.0 7.0----30.16- 45.7 41.4----
2024-04-19 11:30 am SE 6.0 6.0----30.16- 45.7 41.2----
2024-04-19 11:24 amESE 5.1 6.0----30.16- 45.5 41.2----
2024-04-19 11:18 amESE 5.1 6.0----30.17- 45.0 41.2----
2024-04-19 11:12 amESE 5.1 6.0----30.17- 44.8 41.2----
2024-04-19 11:06 am SE 5.1 6.0----30.17- 44.8 41.2----
2024-04-19 11:00 am SE 5.1 6.0----30.18-0.01 44.4 41.2----
2024-04-19 10:54 amSSE 6.0 7.0----30.18- 44.4 41.2----
2024-04-19 10:48 am SE 7.0 7.0----30.18- 44.2 41.2----
2024-04-19 10:42 am SE 6.0 7.0----30.18- 44.2 41.2----
2024-04-19 10:36 am SE 5.1 6.0----30.19- 44.2 41.2----
2024-04-19 10:30 am SE 5.1 5.1----30.19- 44.1 41.2----
2024-04-19 10:24 am SE 5.1 5.1----30.19- 44.1 41.4----
2024-04-19 10:18 amSSE 5.1 6.0----30.19- 44.1 41.4----
2024-04-19 10:12 amSSE 5.1 5.1----30.19- 44.2 41.2----
2024-04-19 10:06 amESE 5.1 6.0----30.19- 44.2 41.2----
2024-04-19 10:00 amESE 5.1 6.0----30.20+0.01 44.4 41.2----
2024-04-19 09:54 am SE 4.1 5.1----30.20- 44.4 41.2----
2024-04-19 09:48 am SE 2.9 4.1----30.20- 44.2 41.2----
2024-04-19 09:42 amESE 2.9 5.1----30.20- 44.4 41.2----
2024-04-19 09:36 amESE 2.9 2.9----30.20- 44.4 41.2----
2024-04-19 09:30 am E 2.9 5.1----30.20- 44.2 41.2----
2024-04-19 09:24 am E 4.1 4.1----30.20- 44.1 41.2----
2024-04-19 09:18 amENE 2.9 5.1----30.20- 44.1 41.2----
2024-04-19 09:12 am E 4.1 5.1----30.20- 43.9 41.2----
2024-04-19 09:06 am E 4.1 6.0----30.20- 43.9 41.2----
2024-04-19 09:00 amENE 5.1 6.0----30.19+0.02 43.5 41.2----
2024-04-19 08:54 amENE 5.1 5.1----30.19- 43.5 41.2----
2024-04-19 08:48 amENE 4.1 5.1----30.19- 43.5 41.2----
2024-04-19 08:42 amENE 4.1 5.1----30.20- 43.5 41.2----
2024-04-19 08:36 am E 4.1 5.1----30.19- 43.5 41.2----
2024-04-19 08:30 amENE 2.9 4.1----30.20- 43.5 41.2----
2024-04-19 08:24 amENE 1.9 2.9----30.19- 43.7 41.2----
2024-04-19 08:18 amENE 2.9 4.1----30.19- 43.5 41.2----
2024-04-19 08:12 amENE 1.9 2.9----30.19- 43.2 41.2----
2024-04-19 08:06 am NE 2.9 5.1----30.19- 42.8 41.2----
2024-04-19 08:00 amNNE 4.1 4.1----30.19+0.01 42.4 41.2----
2024-04-19 07:54 am NE 2.9 4.1----30.19- 42.8 41.2----